Flag for U.S.A. Weather past 2 weeks in Pasadena, Texas, U.S.A.

Now
81 °F

Passing clouds.


Feels Like: 87 °F
Forecast: 76 / 90 °F
Wind: No wind

Location: Houston / Ellington

Current Time: Sep 5, 2015 at 3:21:43 AM

Latest Report: Sep 5, 2015 at 1:50 AM


Visibility: 10 mi

Pressure: 29.97 "Hg

Humidity: 89%

Dew point: 77 °F

Location of PasadenaLocation

Historic Weather in Pasadena — Graph

°F

Pasadena temperature yesterday

Maximum temperature yesterday: 91 °F (at 11:50 AM)
Minimum temperature yesterday: 77 °F (at 4:50 AM)
Average temperature yesterday: 82 °F

Past Weeks' High & Low Weather Summary

 TemperatureHumidityPressure
High95 °F (Aug 23, 12:50 PM)100% (Aug 21, 10:50 AM)30.15 "Hg (Aug 21, 10:50 AM)
Low72 °F (Aug 21, 9:50 AM)36% (Aug 27, 3:50 PM)29.88 "Hg (Sep 3, 6:50 PM)
Average81 °F75%30.01 "Hg
* Reported Aug 21 1:50 AM — Sep 5 1:50 AM, Pasadena, Weather by CustomWeather, © 2015

Note: Actual official high and low records may vary slightly from our data, if they occured in-between our weather recording intervals... More about our weather records

Advertising

Pasadena weather history for previous 24 hours

 ConditionsComfort  
Time TempWeatherWind HumidityBarometerVisibility
1:50 AM
Sat, Sep 5
81 °FPassing clouds.No wind89%29.97 "Hg10 mi
12:50 AM81 °FPassing clouds.No wind94%29.97 "Hg10 mi
11:50 PM
Fri, Sep 4
81 °FPassing clouds.No wind84%29.97 "Hg10 mi
10:50 PM81 °FPassing clouds.No wind79%29.97 "Hg10 mi
9:50 PM82 °FPassing clouds.No wind74%29.97 "Hg10 mi
8:50 PM82 °FPassing clouds.5 mph74%29.95 "Hg10 mi
7:50 PM84 °FBroken clouds.5 mph66%29.95 "Hg10 mi
6:50 PM84 °FPartly sunny.3 mph66%29.94 "Hg10 mi
5:50 PM84 °FBroken clouds.5 mph66%29.94 "Hg10 mi
4:50 PM84 °FBroken clouds.3 mph74%29.94 "Hg10 mi
3:50 PM86 °FScattered showers. Broken clouds.8 mph62%29.94 "Hg8 mi
2:50 PM88 °FScattered showers. Broken clouds.5 mph55%29.95 "Hg8 mi
1:50 PM84 °FBroken clouds.3 mph74%29.96 "Hg8 mi
12:50 PM84 °FLight rain. Partly sunny.5 mph79%29.98 "Hg6 mi
11:50 AM91 °FScattered showers. Partly sunny.6 mph59%29.98 "Hg8 mi
9:50 AM82 °FScattered showers. Broken clouds.5 mph94%29.97 "Hg10 mi
8:50 AM82 °FScattered showers. Broken clouds.No wind79%29.97 "Hg7 mi
7:50 AM79 °FPassing clouds.No wind89%29.96 "Hg10 mi
6:50 AM77 °FPassing clouds.No wind89%29.94 "Hg10 mi
5:50 AM77 °FPassing clouds.No wind89%29.93 "Hg10 mi
4:50 AM77 °FPassing clouds.No wind89%29.92 "Hg10 mi
Weather by CustomWeather, © 2015

See weather overviewHow to use our weather pages